This demonstration page uses our WeatherBlox Daily Observations layout. Learn more.

Left ArrowRight Arrow

Hourly Observations for May 4, 2022

Temp ( °F °C ) Dew Point ( °F °C ) Humidity (%) Winds ( mph kmh ) Pressure ( in mb ) Visibility ( mi km ) Precip ( " mm )
12:53 am 00:53 Clear 40 4.4 30 -1.1 68 68 W 6 9 29.95 1014 10 16 0.00 0.00
1:53 am 01:53 Clear 40 4.4 32 0 73 73 WSW 6 9 29.94 1014 10 16 0.00 0.00
2:53 am 02:53 Clear 39 3.9 32 0 76 76 SSW 5 7 29.94 1014 10 16 0.00 0.00
3:53 am 03:53 Clear 40 4.4 33 0.6 77 77 SW 6 9 29.95 1014 10 16 0.00 0.00
4:53 am 04:53 Partly Cloudy 41 5 36 2.2 82 82 Calm 29.94 1014 10 16 0.00 0.00
5:53 am 05:53 Clear 40 4.4 37 2.8 89 89 WSW 8 13 29.96 1015 10 16 0.00 0.00
6:53 am 06:53 Sunny 41 5 38 3.3 89 89 SW 8 13 29.96 1015 10 16 0.00 0.00
7:53 am 07:53 Sunny 52 11.1 38 3.3 59 59 SW 20 31 29.95 1014 10 16 0.00 0.00
8:53 am 08:53 Sunny 59 15 36 2.2 42 42 SW 20 31 29.96 1015 10 16 0.00 0.00
9:53 am 09:53 Sunny 63 17.2 36 2.2 37 37 SW 18 30 29.95 1014 10 16 0.00 0.00
10:53 am 10:53 Sunny 65 18.3 38 3.3 37 37 SW 18 30 29.94 1014 10 16 0.00 0.00
11:53 am 11:53 Sunny 68 20 35 1.7 30 30 WSW 14 22 29.93 1013 10 16 0.00 0.00
12:53 pm 12:53 Sunny 72 22.2 35 1.7 26 26 SW 16 26 29.91 1013 10 16 0.00 0.00
1:53 pm 13:53 Sunny 73 22.8 32 0 22 22 SW 13 20 29.89 1012 10 16 0.00 0.00
2:53 pm 14:53 Sunny 74 23.3 31 -0.6 20 20 SW 18 30 29.88 1012 10 16 0.00 0.00
3:53 pm 15:53 Sunny 76 24.4 30 -1.1 18 18 WSW 15 24 29.86 1011 10 16 0.00 0.00
4:53 pm 16:53 Sunny 75 23.9 31 -0.6 20 20 WSW 15 24 29.85 1011 10 16 0.00 0.00
5:53 pm 17:53 Sunny 75 23.9 33 0.6 22 22 SW 20 31 29.83 1010 10 16 0.00 0.00
6:53 pm 18:53 Sunny 74 23.3 34 1.1 23 23 SW 14 22 29.82 1010 10 16 0.00 0.00
7:53 pm 19:53 Sunny 71 21.7 34 1.1 26 26 SW 9 15 29.81 1009 10 16 0.00 0.00
8:53 pm 20:53 Clear 63 17.2 35 1.7 35 35 W 8 13 29.82 1010 10 16 0.00 0.00
9:53 pm 21:53 Clear 61 16.1 35 1.7 38 38 WSW 12 19 29.84 1011 10 16 0.00 0.00
10:53 pm 22:53 Clear 56 13.3 35 1.7 46 46 SW 9 15 29.85 1011 10 16 0.00 0.00
11:53 pm 23:53 Clear 52 11.1 35 1.7 53 53 S 8 13 29.85 1011 10 16 0.00 0.00

Powered by AerisWeather